Athens Eleftherios, Greece

6:47 PM EEST on August 28, 2016 (GMT +0300)
Eleftherios Venizelos International

Weather History for LGAV - August, 2014

Change the Weather History Date:

Friday, August 29, 2014

  Actual Average (LGEL) Record (LGEL)
Temperature  
Mean Temperature 80 °F -  
Max Temperature 84 °F 88 °F 98 °F (2003)
Min Temperature 75 °F 71 °F 64 °F (1999)
Cooling Degree Days 14    
Growing Degree Days 30 (Base 50)    
Moisture  
Dew Point 61 °F    
Average Humidity 52    
Maximum Humidity 65    
Minimum Humidity 42    
Precipitation  
Precipitation 0.00 in - - ()
Sea Level Pressure  
Sea Level Pressure 29.94 in    
Wind  
Wind Speed 17 mph ()    
Max Wind Speed 28 mph    
Max Gust Speed 38 mph    
Visibility 6.2 miles    
Events      
Averages and records for this station are not official NWS values.
T = Trace of Precipitation, MM = Missing Value Source: Averaged Metar Reports

Daily Weather History Graph

Daily Weather History Graph

Search for Another Location

Airport or City:

Trip Planner

Search our weather history database for the weather conditions in past years. The results will help you decide how hot, cold, wet, or windy it might be!

Date:

Astronomy

Aug. 29, 2014 Rise Set
Actual Time 6:51 AM EEST 7:58 PM EEST
Civil Twilight 6:24 AM EEST 8:25 PM EEST
Nautical Twilight 5:51 AM EEST 8:57 PM EEST
Astronomical Twilight 5:18 AM EEST 9:31 PM EEST
Moon 10:18 AM EEST (8/29) 9:49 PM EEST (8/29)
Length of Visible Light 14h 01m
Length of Day
13h 07m
Waxing Crescent, 13% of the Moon is Illuminated
Aug 29
Waxing Crescent
Sep 2
First Quarter
Sep 9
Full
Sep 16
Last Quarter
Sep 24
New

Hourly Weather History & Observations

Time (EEST) Temp. Heat Index Dew Point Humidity Pressure Visibility Wind Dir Wind Speed Gust Speed Precip Events Conditions
12:20 AM 82.4 °F 83.4 °F 62.6 °F 51% 29.89 in - NNE 15.0 mph - N/A   Clear
12:50 AM 80.6 °F 82.3 °F 64.4 °F 58% 29.89 in - NNE 11.5 mph - N/A   Clear
1:20 AM 80.6 °F 82.3 °F 64.4 °F 58% 29.89 in - NNE 11.5 mph - N/A   Clear
1:50 AM 80.6 °F 82.3 °F 64.4 °F 58% 29.89 in - NNE 16.1 mph - N/A   Clear
2:20 AM 80.6 °F 81.8 °F 62.6 °F 54% 29.89 in - NNE 17.3 mph - N/A   Clear
2:50 AM 80.6 °F 81.1 °F 59.0 °F 48% 29.89 in - NNE 19.6 mph - N/A   Clear
3:20 AM 80.6 °F 80.8 °F 57.2 °F 45% 29.89 in - NNE 17.3 mph 28.8 mph N/A   Clear
3:50 AM 80.6 °F 80.8 °F 57.2 °F 45% 29.89 in - NNE 16.1 mph - N/A   Clear
4:20 AM 78.8 °F - 57.2 °F 47% 29.89 in - NNE 16.1 mph - N/A   Clear
4:50 AM 78.8 °F - 59.0 °F 51% 29.89 in - NE 20.7 mph - N/A   Clear
5:20 AM 77.0 °F - 59.0 °F 54% 29.89 in - NNE 19.6 mph - N/A   Clear
5:50 AM 77.0 °F - 60.8 °F 57% 29.89 in - NNE 20.7 mph - N/A   Clear
6:20 AM 77.0 °F - 62.6 °F 61% 29.89 in - NNE 21.9 mph - N/A   Clear
6:50 AM 75.2 °F - 62.6 °F 65% 29.89 in - NNE 15.0 mph 26.5 mph N/A   Clear
7:20 AM 77.0 °F - 62.6 °F 61% 29.92 in - NNE 16.1 mph - N/A   Clear
7:50 AM 77.0 °F - 64.4 °F 65% 29.92 in 6.2 mi NNE 17.3 mph - N/A   Partly Cloudy
8:20 AM 77.0 °F - 64.4 °F 65% 29.92 in 6.2 mi NNE 18.4 mph - N/A   Partly Cloudy
8:50 AM 78.8 °F - 64.4 °F 61% 29.92 in 6.2 mi NNE 18.4 mph - N/A   Partly Cloudy
9:20 AM 78.8 °F - 64.4 °F 61% 29.95 in 6.2 mi NNE 21.9 mph 33.4 mph N/A   Partly Cloudy
9:50 AM 80.6 °F 82.3 °F 64.4 °F 58% 29.95 in 6.2 mi NNE 24.2 mph 35.7 mph N/A   Partly Cloudy
10:20 AM 82.4 °F 83.9 °F 64.4 °F 54% 29.95 in 6.2 mi NNE 23.0 mph - N/A   Partly Cloudy
10:50 AM 82.4 °F 83.4 °F 62.6 °F 51% 29.95 in 6.2 mi NNE 21.9 mph - N/A   Partly Cloudy
11:20 AM 82.4 °F 83.4 °F 62.6 °F 51% 29.95 in 6.2 mi North 19.6 mph - N/A   Partly Cloudy
11:50 AM 84.2 °F 85.0 °F 62.6 °F 48% 29.95 in - NNE 23.0 mph 34.5 mph N/A   Clear
12:20 PM 82.4 °F 83.4 °F 62.6 °F 51% 29.95 in 6.2 mi NNE 25.3 mph - N/A   Partly Cloudy
12:50 PM 84.2 °F 85.0 °F 62.6 °F 48% 29.95 in 6.2 mi NNE 26.5 mph - N/A   Partly Cloudy
1:20 PM 84.2 °F 85.0 °F 62.6 °F 48% 29.95 in 6.2 mi NNE 25.3 mph - N/A   Partly Cloudy
1:50 PM 84.2 °F 85.0 °F 62.6 °F 48% 29.95 in 6.2 mi NNE 25.3 mph - N/A   Partly Cloudy
2:20 PM 84.2 °F 85.0 °F 62.6 °F 48% 29.95 in 6.2 mi NNE 27.6 mph - N/A   Partly Cloudy
2:50 PM 84.2 °F 85.0 °F 62.6 °F 48% 29.95 in 6.2 mi NE 25.3 mph - N/A   Partly Cloudy
3:20 PM 84.2 °F 85.0 °F 62.6 °F 48% 29.95 in 6.2 mi NE 25.3 mph 36.8 mph N/A   Partly Cloudy
3:50 PM 84.2 °F 84.4 °F 60.8 °F 45% 29.95 in 6.2 mi NNE 23.0 mph - N/A   Partly Cloudy
4:20 PM 84.2 °F 84.4 °F 60.8 °F 45% 29.95 in 6.2 mi NNE 23.0 mph 34.5 mph N/A   Partly Cloudy
4:50 PM 84.2 °F 83.8 °F 59.0 °F 42% 29.95 in 6.2 mi NNE 26.5 mph 38.0 mph N/A   Partly Cloudy
5:20 PM 82.4 °F 82.5 °F 59.0 °F 45% 29.95 in 6.2 mi NNE 26.5 mph - N/A   Scattered Clouds
5:50 PM 82.4 °F 82.0 °F 57.2 °F 42% 29.95 in - North 25.3 mph 36.8 mph N/A   Clear
6:20 PM 82.4 °F 82.5 °F 59.0 °F 45% 29.95 in - NNE 23.0 mph - N/A   Clear
6:50 PM 80.6 °F 81.1 °F 59.0 °F 48% 29.95 in - North 19.6 mph - N/A   Clear
7:20 PM 78.8 °F - 57.2 °F 47% 29.95 in - NNE 19.6 mph - N/A   Clear
7:50 PM 78.8 °F - 57.2 °F 47% 29.98 in - North 15.0 mph - N/A   Clear
8:20 PM 78.8 °F - 57.2 °F 47% 29.98 in - North 15.0 mph - N/A   Clear
8:50 PM 77.0 °F - 59.0 °F 54% 29.98 in - North 12.7 mph - N/A   Clear
9:20 PM 77.0 °F - 59.0 °F 54% 29.98 in - North 17.3 mph - N/A   Clear
9:50 PM 77.0 °F - 59.0 °F 54% 29.98 in - North 12.7 mph - N/A   Clear
10:20 PM 77.0 °F - 59.0 °F 54% 30.01 in - North 11.5 mph - N/A   Clear
10:50 PM 77.0 °F - 60.8 °F 57% 30.01 in - NNE 12.7 mph - N/A   Clear
11:20 PM 75.2 °F - 62.6 °F 65% 30.01 in - NNE 13.8 mph - N/A   Clear
11:50 PM 75.2 °F - 59.0 °F 57% 30.01 in - NNE 19.6 mph - N/A   Clear